Weather History for Marathon, FL

Change the Weather History Date:

Thursday, November 15, 2012

  Actual Average Record
Temperature  
Mean Temperature 76 °F 76 °F  
Max Temperature 80 °F 81 °F 88 °F (2008)
Min Temperature 72 °F 71 °F 69 °F (1999)
Degree Days  
Heating Degree Days 0 0  
Month to date heating degree days 0 0  
Since 1 July heating degree days 0 0  
Cooling Degree Days 11 11  
Month to date cooling degree days 136 176  
Year to date cooling degree days 4894 4615  
Growing Degree Days 26 (Base 50)    
Moisture  
Dew Point 65 °F    
Average Humidity 71    
Maximum Humidity 84    
Minimum Humidity 58    
Precipitation  
Precipitation 0.02 in 0.10 in 0.25 in (2013)
Month to date precipitation 0.10 1.67  
Year to date precipitation 43.90 43.00  
Snow  
Snow 0.00 in - - ()
Month to date snowfall 0.0  
Since 1 July snowfall 0.0  
Since 1 September snowfall 0.0  
Snow Depth 0.00 in    
Sea Level Pressure  
Sea Level Pressure 30.05 in    
Wind  
Wind Speed 7 mph (NNE)    
Max Wind Speed 12 mph    
Max Gust Speed 16 mph    
Visibility 10 miles    
Events Rain    
T = Trace of Precipitation, MM = Missing Value Source: NWS Daily Summary

Daily Weather History Graph

Daily Weather History Graph

Search for Another Location

Airport:

Trip Planner

Search our weather history database for the weather conditions in past years. The results will help you decide how hot, cold, wet, or windy it might be!

Date:

Astronomy

Nov. 15, 2012 Rise Set
Actual Time 6:40 AM EST 5:36 PM EST
Civil Twilight 6:16 AM EST 6:00 PM EST
Nautical Twilight 5:49 AM EST 6:28 PM EST
Astronomical Twilight 5:21 AM EST 6:55 PM EST
Moon 8:28 AM EST (11/15) 7:33 PM EST (11/15)
Length of Visible Light 11h 44m
Length of Day
10h 56m
Waxing Crescent, 5% of the Moon is Illuminated
Nov 15
Waxing Crescent
Nov 20
First Quarter
Nov 28
Full
Dec 6
Last Quarter
Dec 13
New

Hourly Weather History & Observations

Time (EST) Temp. Dew Point Humidity Pressure Visibility Wind Dir Wind Speed Gust Speed Precip Events Conditions
12:53 AM 72.0 °F 66.0 °F 81% 30.05 in 10.0 mi North 5.8 mph - N/A   Mostly Cloudy
1:53 AM 72.0 °F 66.9 °F 84% 30.04 in 8.0 mi North 9.2 mph - 0.01 in Rain Light Rain
2:53 AM 72.0 °F 66.0 °F 81% 30.03 in 10.0 mi NNE 9.2 mph - 0.01 in   Clear
3:53 AM 72.0 °F 66.0 °F 81% 30.02 in 10.0 mi NE 8.1 mph - N/A   Clear
4:53 AM 72.0 °F 66.0 °F 81% 30.02 in 10.0 mi NNE 8.1 mph - N/A   Mostly Cloudy
5:53 AM 72.0 °F 66.0 °F 81% 30.04 in 10.0 mi NNE 11.5 mph - N/A   Partly Cloudy
6:53 AM 72.0 °F 66.0 °F 81% 30.04 in 10.0 mi NE 10.4 mph - N/A   Clear
7:53 AM 73.0 °F 66.0 °F 79% 30.06 in 10.0 mi NE 9.2 mph - N/A   Clear
8:53 AM 75.9 °F 66.0 °F 71% 30.07 in 10.0 mi NE 9.2 mph - N/A   Clear
9:53 AM 75.9 °F 66.0 °F 71% 30.09 in 10.0 mi NE 10.4 mph - N/A   Clear
10:53 AM 78.1 °F 66.0 °F 66% 30.09 in 10.0 mi NE 10.4 mph - N/A   Clear
11:53 AM 78.1 °F 64.9 °F 64% 30.09 in 10.0 mi NE 9.2 mph - N/A   Clear
12:53 PM 79.0 °F 64.9 °F 62% 30.06 in 10.0 mi NNE 9.2 mph - N/A   Clear
1:53 PM 79.0 °F 62.1 °F 56% 30.04 in 10.0 mi NNE 6.9 mph - N/A   Clear
2:53 PM 79.0 °F 62.1 °F 56% 30.04 in 10.0 mi NNE 8.1 mph - N/A   Clear
3:53 PM 78.1 °F 66.0 °F 66% 30.04 in 10.0 mi Variable 3.5 mph - N/A   Clear
4:53 PM 75.0 °F 64.9 °F 71% 30.04 in 10.0 mi North 4.6 mph - N/A   Clear
5:53 PM 73.9 °F 64.9 °F 73% 30.05 in 10.0 mi NNW 3.5 mph - N/A   Clear
6:53 PM 73.0 °F 64.0 °F 73% 30.06 in 10.0 mi North 3.5 mph - N/A   Clear
7:53 PM 73.0 °F 64.0 °F 73% 30.07 in 10.0 mi North 4.6 mph - N/A   Clear
8:53 PM 73.0 °F 64.0 °F 73% 30.07 in 10.0 mi North 5.8 mph - N/A   Clear
9:53 PM 73.0 °F 62.1 °F 68% 30.07 in 10.0 mi Variable 4.6 mph - N/A   Clear
10:53 PM 73.0 °F 63.0 °F 71% 30.07 in 10.0 mi North 6.9 mph - N/A   Clear
11:53 PM 72.0 °F 64.0 °F 76% 30.06 in 10.0 mi NNW 4.6 mph - N/A   Clear